Location: College Park
(38.9810°N, 76.9370°W)
Time: 20:36:11
(UTC-05:00)

N. Korean satellite - Pass Details

Date: 05 January 2018
Orbit: 458 x 515 km, 97.2° (Epoch: 21 January)

Event Time Altitude Azimuth Distance (km) Brightness Sun altitude
Rises 06:28:07 0° 19° (NNE) 2,525 10.2 -11.2°
Reaches altitude 10° 06:30:16 10° 27° (NNE) 1,634 9.3 -10.8°
Maximum altitude 06:33:36 40° 98° (E) 696 8.0 -10.2°
Drops below altitude 10° 06:36:51 10° 170° (S) 1,602 9.6 -9.6°
Sets 06:38:57 0° 178° (S) 2,467 10.5 -9.3°
